Location: �chenoz-la-M�line
(47.6009°N, 6.1354°E)
Time: 16:16:37
(UTC+00:00)

METEOR-M - Pass Details

Date: 27 January 2021
Orbit: 815 x 820 km, 98.5° (Epoch: 04 March)

Event Time Altitude Azimuth Distance (km) Brightness Sun altitude
Rises 04:25:34 0° 13° (NNE) 3,363 7.5 -27.3°
Reaches altitude 10° 04:27:55 10° 13° (NNE) 2,425 6.7 -26.9°
Maximum altitude 04:33:18 85° 287° (WNW) 828 4.0 -26.0°
Enters shadow 04:34:33 55° 203° (SSW) 983 4.3 -25.8°
